Regional Weather Roundup
Issued by NWS Green Bay, WI

Home | Current Version | Previous Version | Graphics & Text | Print | Product List | Glossary Off
Versions: 1 2 3 4 5 6 7 8 9 10 11 12 13 14 15 16 17 18 19 20 21 22 23 24 25 26 27 28 29 30 31 32 33 34 35 36 37 38 39 40 41 42 43 44 45 46 47 48 49 50

000
ASUS43 KGRB 300900
RWRGRB

NORTH-CENTRAL AND NORTHEAST WISCONSIN REGIONAL WEATHER ROUNDUP
NATIONAL WEATHER SERVICE GREEN BAY WI
400 AM CDT TUE JUN 30 2015

WIZ005-009-010>012-018-019-301000-
NORTH CENTRAL WISCONSIN

CITY           SKY/WX    TMP DP  RH WIND       PRES   REMARKS
IRONWOOD       CLOUDY    55  55 100 N8        29.86R
MANITOWISH WTR NOT AVBL
ARBOR VITAE    NOT AVBL
EAGLE RIVER    NOT AVBL
LAND O LAKES   NOT AVBL
RHINELANDER    CLOUDY    59  56  89 N7        29.84R
PHILLIPS       NOT AVBL
ANTIGO         NOT AVBL
TOMAHAWK       NOT AVBL
MERRILL        NOT AVBL
$$

WIZ013-073-301000-
NORTHEAST WISCONSIN

CITY           SKY/WX    TMP DP  RH WIND       PRES   REMARKS
IRON MOUNTAIN  CLOUDY    61  59  93 NW7       29.78S
MARINETTE      CLOUDY    63  57  82 N6        29.76R
$$

WIZ017-030-035>037-045-301000-
CENTRAL WISCONSIN

CITY           SKY/WX    TMP DP  RH WIND       PRES   REMARKS
MEDFORD        NOT AVBL
WAUSAU         CLOUDY    61  59  93 N6        29.80R
MOSINEE        NOT AVBL
MARSHFIELD     MOCLDY    60  56  86 N7        29.81R FOG
WISC RAPIDS    MOCLDY    57  54  89 NW5       29.81S FOG
STEVENS POINT  NOT AVBL
WAUPACA        NOT AVBL
SHAWANO        NOT AVBL
CLINTONVILLE   NOT AVBL
$$

WIZ038-039-048-051-301000-
FOX VALLEY

CITY           SKY/WX    TMP DP  RH WIND       PRES   REMARKS
NWS GREEN BAY  MOCLDY    62  60  93 NW5       29.75F
APPLETON       NOT AVBL
OSHKOSH        PTCLDY    59  57  93 W7        29.76F FOG
FOND DU LAC    CLEAR     59  57  93 CALM      29.77S
$$

WIZ022-050-052-301000-
EAST CENTRAL WISCONSIN

CITY           SKY/WX    TMP DP  RH WIND       PRES   REMARKS
STURGEON BAY   CLOUDY    61  55  82 SE7       29.77F
MANITOWOC      MOCLDY    63  61  94 MISG      29.75S
SHEBOYGAN      CLEAR     61  58  90 W6        29.75S
$$

LMZ563-521-522-541>543-301000-
LAKESHORE

STATION/POSITION TIME  TEMP    WIND        PRES    VSBY  WAVE
                       AIR SEA DIR/SP/G                  HT/PER
                 (UTC) (F)     (DEG/KT/KT) (MB)    (MI)  (FT/S)
SHEBOYGAN LKSHOR 0800   62     230/  5/  5 1007.6F
KEWAUNEE LKSHORE 0800   61     110/  5/  7 1006.8S
ALGOMA MARINA    0810             CALM       N/A
NORTHPORT PIER   0800   61     140/  8/ 10 1007.8F
N MID LAKE BUOY  0750   57 54  220/  8/  8 1008.4R         1
S GREEN BAY BUOY 0830   65 70   60/ 10/ 12 1008.6F
SISTER BAY LKSHO 0844   61      CALM  /  3   N/A
CHAMBERS ISLAND  0800   64      50/  4/  5 1007.8F
MENOMINEE LKSHOR 0800   64      10/ 11/ 12 1008.2F
$$


USA.gov is the U.S. government's official web portal to all federal, state and local government web resources and services.